• En España
  • Lista de países
  • Para 7 días
  • Temperatura del agua
  • Mapa Satelital
  • El tiempo en el mapa
  • Informadores
  • user-avatar
    Iniciar sesión

    Tiempo cada hora Klyuchevaya

    Hoy, 27 Mayo, Domingo

    Tiempo Temperatura Precipitaciones Viento Presión Humedad
    00:00 +11°C° 0 mm 3 mps 756 mmHg 74%
    01:00 +11°C° 0 mm 3 mps 756 mmHg 75%
    02:00 +11°C° 0 mm 3 mps 756 mmHg 76%
    03:00 +11°C° 0 mm 3 mps 755 mmHg 75%
    04:00 +12°C° 0 mm 3 mps 755 mmHg 75%
    05:00 +12°C° 0 mm 3 mps 755 mmHg 75%
    06:00 +14°C° 0 mm 4 mps 754 mmHg 70%
    07:00 +17°C° 0 mm 4 mps 754 mmHg 65%
    08:00 +19°C° 0 mm 4 mps 754 mmHg 60%
    09:00 +21°C° 0 mm 5 mps 753 mmHg 57%
    10:00 +22°C° 0 mm 5 mps 753 mmHg 53%
    11:00 +23°C° 0 mm 5 mps 752 mmHg 49%
    12:00 +23°C° 0 mm 5 mps 752 mmHg 50%
    13:00 +23°C° 0 mm 4 mps 751 mmHg 52%
    14:00 +23°C° 0 mm 4 mps 751 mmHg 54%
    15:00 +23°C° 0,2 mm 4 mps 751 mmHg 56%
    16:00 +22°C° 0,2 mm 4 mps 751 mmHg 58%
    17:00 +21°C° 0,2 mm 4 mps 751 mmHg 61%
    18:00 +19°C° 0 mm 4 mps 751 mmHg 59%
    19:00 +17°C° 0 mm 3 mps 752 mmHg 58%
    20:00 +14°C° 0 mm 3 mps 752 mmHg 56%
    21:00 +13°C° 0 mm 3 mps 753 mmHg 54%
    22:00 +12°C° 0 mm 3 mps 754 mmHg 51%
    23:00 +10°C° 0 mm 3 mps 754 mmHg 48%

    Mañana, 28 Mayo, Lunes

    Tiempo Temperatura Precipitaciones Viento Presión Humedad
    00:00 +9°C° 0 mm 3 mps 755 mmHg 49%
    01:00 +8°C° 0 mm 3 mps 756 mmHg 49%
    02:00 +7°C° 0 mm 2 mps 757 mmHg 50%
    03:00 +7°C° 0 mm 2 mps 757 mmHg 51%
    04:00 +7°C° 0 mm 2 mps 758 mmHg 52%
    05:00 +7°C° 0 mm 2 mps 758 mmHg 53%
    06:00 +9°C° 0 mm 2 mps 758 mmHg 49%
    07:00 +12°C° 0 mm 2 mps 759 mmHg 45%
    08:00 +13°C° 0 mm 2 mps 759 mmHg 41%
    09:00 +13°C° 0 mm 3 mps 759 mmHg 39%
    10:00 +16°C° 0 mm 3 mps 759 mmHg 36%
    11:00 +17°C° 0 mm 3 mps 759 mmHg 34%
    12:00 +17°C° 0 mm 3 mps 759 mmHg 33%
    13:00 +18°C° 0 mm 3 mps 759 mmHg 33%
    14:00 +18°C° 0 mm 2 mps 759 mmHg 32%
    15:00 +18°C° 0 mm 2 mps 758 mmHg 34%
    16:00 +18°C° 0 mm 2 mps 758 mmHg 36%
    17:00 +18°C° 0 mm 2 mps 758 mmHg 38%
    18:00 +16°C° 0 mm 1 mps 758 mmHg 45%
    19:00 +14°C° 0 mm 1 mps 758 mmHg 51%
    20:00 +12°C° 0 mm 1 mps 758 mmHg 58%
    21:00 +11°C° 0 mm 1 mps 758 mmHg 59%
    22:00 +11°C° 0 mm 1 mps 758 mmHg 60%
    23:00 +10°C° 0 mm 1 mps 758 mmHg 61%

    Pasado mañana, 29 Mayo, Martes

    Tiempo Temperatura Precipitaciones Viento Presión Humedad
    00:00 +9°C° 0 mm 2 mps 758 mmHg 62%
    01:00 +8°C° 0 mm 2 mps 758 mmHg 64%
    02:00 +8°C° 0 mm 2 mps 758 mmHg 66%
    03:00 +8°C° 0 mm 2 mps 758 mmHg 65%
    04:00 +9°C° 0 mm 2 mps 758 mmHg 65%
    05:00 +10°C° 0 mm 2 mps 758 mmHg 64%
    06:00 +12°C° 0 mm 3 mps 757 mmHg 59%
    07:00 +14°C° 0 mm 3 mps 757 mmHg 53%
    08:00 +17°C° 0 mm 3 mps 757 mmHg 47%
    09:00 +19°C° 0 mm 3 mps 756 mmHg 44%
    10:00 +20°C° 0 mm 3 mps 755 mmHg 40%
    11:00 +21°C° 0 mm 3 mps 755 mmHg 37%
    12:00 +22°C° 0 mm 3 mps 754 mmHg 37%
    13:00 +22°C° 0 mm 4 mps 754 mmHg 36%
    14:00 +23°C° 0 mm 4 mps 753 mmHg 36%
    15:00 +24°C° 0 mm 3 mps 752 mmHg 39%
    16:00 +24°C° 0 mm 3 mps 751 mmHg 42%
    17:00 +22°C° 0 mm 3 mps 751 mmHg 45%
    18:00 +20°C° 0 mm 3 mps 750 mmHg 53%
    19:00 +18°C° 0 mm 3 mps 750 mmHg 60%
    20:00 +16°C° 0 mm 2 mps 749 mmHg 68%
    21:00 +16°C° 0 mm 2 mps 749 mmHg 71%
    22:00 +14°C° 0 mm 3 mps 748 mmHg 74%
    23:00 +13°C° 0 mm 3 mps 748 mmHg 77%

    30 Mayo, Miércoles

    Tiempo Temperatura Precipitaciones Viento Presión Humedad
    00:00 +13°C° 0 mm 3 mps 747 mmHg 78%
    01:00 +13°C° 0 mm 3 mps 747 mmHg 80%
    02:00 +13°C° 0 mm 3 mps 747 mmHg 82%
    03:00 +13°C° 0 mm 4 mps 746 mmHg 80%
    04:00 +14°C° 0 mm 4 mps 746 mmHg 78%
    05:00 +15°C° 0 mm 4 mps 745 mmHg 76%
    06:00 +17°C° 0 mm 5 mps 745 mmHg 70%
    07:00 +20°C° 0 mm 6 mps 744 mmHg 64%
    08:00 +22°C° 0 mm 6 mps 743 mmHg 58%
    09:00 +23°C° 0 mm 7 mps 743 mmHg 54%
    10:00 +24°C° 0 mm 7 mps 742 mmHg 49%
    11:00 +26°C° 0 mm 7 mps 741 mmHg 44%
    12:00 +26°C° 0 mm 7 mps 741 mmHg 45%
    13:00 +24°C° 0 mm 6 mps 740 mmHg 46%
    14:00 +24°C° 0 mm 6 mps 740 mmHg 48%
    15:00 +23°C° 0 mm 6 mps 740 mmHg 50%
    16:00 +22°C° 0 mm 5 mps 740 mmHg 53%
    17:00 +21°C° 0 mm 5 mps 740 mmHg 56%
    18:00 +18°C° 0 mm 4 mps 740 mmHg 54%
    19:00 +15°C° 0 mm 4 mps 741 mmHg 53%
    20:00 +13°C° 0 mm 4 mps 741 mmHg 52%
    21:00 +12°C° 0 mm 3 mps 742 mmHg 54%
    22:00 +10°C° 0 mm 3 mps 743 mmHg 57%
    23:00 +9°C° 0 mm 3 mps 743 mmHg 59%

    31 Mayo, Jueves

    Tiempo Temperatura Precipitaciones Viento Presión Humedad
    00:00 +8°C° 0 mm 3 mps 743 mmHg 63%
    01:00 +7°C° 0 mm 3 mps 744 mmHg 67%
    02:00 +5°C° 0 mm 3 mps 744 mmHg 71%
    03:00 +5°C° 0 mm 3 mps 745 mmHg 69%
    04:00 +5°C° 0 mm 4 mps 745 mmHg 68%
    05:00 +4°C° 0 mm 4 mps 745 mmHg 66%
    06:00 +5°C° 0 mm 4 mps 746 mmHg 60%
    07:00 +6°C° 0 mm 4 mps 746 mmHg 54%
    08:00 +7°C° 0 mm 4 mps 746 mmHg 48%
    09:00 +10°C° 0 mm 4 mps 746 mmHg 44%
    10:00 +11°C° 0 mm 4 mps 746 mmHg 39%
    11:00 +12°C° 0 mm 4 mps 746 mmHg 35%
    12:00 +12°C° 0 mm 4 mps 746 mmHg 33%
    13:00 +13°C° 0 mm 4 mps 746 mmHg 32%
    14:00 +14°C° 0 mm 4 mps 746 mmHg 30%
    15:00 +13°C° 0 mm 4 mps 746 mmHg 32%
    16:00 +13°C° 0 mm 4 mps 746 mmHg 34%
    17:00 +13°C° 0 mm 4 mps 746 mmHg 36%
    18:00 +11°C° 0 mm 3 mps 746 mmHg 43%
    19:00 +9°C° 0 mm 2 mps 746 mmHg 51%
    20:00 +8°C° 0 mm 2 mps 747 mmHg 58%
    21:00 +7°C° 0 mm 2 mps 747 mmHg 58%
    22:00 +5°C° 0 mm 3 mps 747 mmHg 58%
    23:00 +5°C° 0 mm 3 mps 748 mmHg 58%

    1 Junio, Viernes

    Tiempo Temperatura Precipitaciones Viento Presión Humedad
    00:00 +4°C° 0 mm 3 mps 748 mmHg 60%
    01:00 +3°C° 0 mm 3 mps 748 mmHg 63%
    02:00 +2°C° 0 mm 3 mps 748 mmHg 66%
    03:00 +2°C° 0 mm 3 mps 748 mmHg 64%
    04:00 +3°C° 0 mm 3 mps 748 mmHg 63%
    05:00 +3°C° 0 mm 4 mps 748 mmHg 62%
    06:00 +4°C° 0 mm 4 mps 749 mmHg 57%
    07:00 +5°C° 0 mm 4 mps 749 mmHg 52%
    08:00 +7°C° 0 mm 4 mps 749 mmHg 46%
    09:00 +7°C° 0 mm 4 mps 749 mmHg 45%
    10:00 +8°C° 0 mm 4 mps 749 mmHg 43%
    11:00 +8°C° 0 mm 4 mps 749 mmHg 42%
    12:00 +10°C° 0 mm 4 mps 749 mmHg 40%
    13:00 +11°C° 0 mm 4 mps 749 mmHg 38%
    14:00 +11°C° 0 mm 4 mps 749 mmHg 36%
    15:00 +11°C° 0 mm 4 mps 749 mmHg 37%
    16:00 +11°C° 0 mm 4 mps 749 mmHg 37%
    17:00 +11°C° 0 mm 4 mps 749 mmHg 37%
    18:00 +10°C° 0 mm 3 mps 749 mmHg 44%
    19:00 +8°C° 0 mm 2 mps 749 mmHg 50%
    20:00 +7°C° 0 mm 1 mps 749 mmHg 57%
    21:00 +5°C° 0 mm 2 mps 749 mmHg 58%
    22:00 +5°C° 0 mm 2 mps 749 mmHg 60%
    23:00 +4°C° 0 mm 2 mps 749 mmHg 61%
    Mostrar más